Flag for India Weather past 2 weeks in Varanasi, Uttar Pradesh, India

Now
77 °F

Haze.


Feels Like: 79 °F
Forecast: 55 / 89 °F
Wind: No wind

Location: Varanasi / Babatpur

Current Time: Oct 20, 2014 at 7:40:41 PM

Latest Report: Oct 20, 2014 at 7:00 PM


Visibility: 2 mi

Pressure: 29.92 "Hg

Humidity: 79%

Dew point: 70 °F

Location of VaranasiLocation

Historic Weather in Varanasi — Graph

°F

Varanasi temperature yesterday

Maximum temperature yesterday: 90 °F (at 2:00 PM)
Minimum temperature yesterday: 68 °F (at 5:00 AM)
Average temperature yesterday: 79 °F

Past Weeks' High & Low Weather Summary

 TemperatureHumidityPressure
High97 °F (Oct 6, 3:00 PM)100% (Oct 12, 6:00 AM)30.04 "Hg (Oct 12, 6:00 AM)
Low66 °F (Oct 20, 5:00 AM)46% (Oct 19, 12:00 PM)29.62 "Hg (Oct 14, 5:00 AM)
Average81 °F76%29.85 "Hg
* Reported Oct 5 5:00 PM — Oct 20 5:00 PM, Varanasi, Weather by CustomWeather, © 2014

Note: Actual official high and low records may vary slightly from our data, if they occured in-between our weather recording intervals... More about our weather records

Advertising

Varanasi weather history for previous 24 hours

 ConditionsComfort  
Time TempWeatherWind HumidityBarometerVisibility
5:00 PM
Oct 20
84 °FHaze.No wind58%29.89 "Hg2 mi
3:00 PM86 °FHaze.No wind52%29.89 "Hg2 mi
2:00 PM88 °FScattered clouds.No wind52%29.89 "Hg2 mi
1:00 PM86 °FScattered clouds.No wind52%29.92 "Hg2 mi
12:00 PM86 °FHaze.No wind52%29.95 "Hg2 mi
11:00 AM84 °FHaze.No wind62%29.98 "Hg2 mi
8:00 AM72 °FFog.No wind88%29.95 "Hg1 mi
7:00 AM68 °FFog.No wind94%29.95 "Hg1 mi
6:00 AM68 °FFog.No wind94%29.92 "Hg1 mi
5:00 AM66 °FFog.No wind100%29.89 "Hg1 mi
12:00 AM73 °FFog.No wind89%29.89 "Hg1 mi
11:00 PM
Oct 19
75 °FFog.No wind83%29.92 "Hg1 mi
10:00 PM75 °FFog.No wind89%29.92 "Hg1 mi
9:00 PM77 °FFog.No wind83%29.92 "Hg1 mi
8:00 PM79 °FHaze.No wind79%29.92 "Hg2 mi
7:00 PM79 °FHaze.No wind79%29.89 "Hg2 mi
Weather by CustomWeather, © 2014

See weather overviewHow to use our weather pages